Terug naar catalogus

GONETS M 11

M21

ActiefCommunicatiePO
NORAD 40552·PAYLOAD·🇷🇺 Russia

Gelanceerd Mar 31, 2015 vanaf Plesetsk Cosmodrome

Loading…

Volgende Passages (komende 24 uur)

TLE

VersSource: Space-Track

Epoch: Sep 14, 2026, 14:27 UTC

1 40552U 15020A   26257.60215417 -.00000004  00000-0 -10218-3 0  9993
2 40552  82.4917 335.2859 0016840 164.0824 196.0788 12.42880818519846

Volg GONETS M 11 in realtime met AllMySat

Download on the App Store